EW6978 Weather Reports


time (UTC)temp
C
wind
direction
speed
KPH
gust
KPH
rain 1hr
cm
rain 24hr
cm
rain mn
cm
humidity
%
barometer
mb
20260507193058 9 0.0 0.0 0.00 0.00 0.00 49 995.6
20260507191551 8 0.0 0.0 0.00 0.00 0.00 51 995.7
20260507190055 8 0.0 0.0 0.00 0.00 0.00 47 995.7
20260507184542 9 0.0 0.0 0.00 0.00 0.00 48 995.6
20260507183038 8 0.0 0.0 0.00 0.00 0.00 48 995.6
20260507181534 8 0.0 0.0 0.00 0.00 0.00 48 995.8
20260507180029 8 0.0 0.0 0.00 0.00 0.00 48 995.9
20260507174535 8 0.0 0.0 0.00 0.00 0.00 48 995.9
20260507173046 8 0.0 0.0 0.00 0.00 0.00 52 996.2
20260507171523 8 0.0 0.0 0.00 0.00 0.00 50 996.3
20260507170014 8 0.0 0.0 0.00 0.00 0.00 54 996.6
20260507164508 8 0.0 0.0 0.00 0.00 0.00 53 996.7
20260507163004 8 0.0 0.0 0.00 0.00 0.00 53 996.9
20260507161613 8 0.0 0.0 0.00 0.00 0.00 54 997.1
20260507154550 7 0.0 0.0 0.00 0.00 0.00 57 997.1
20260507153052 7 0.0 0.0 0.00 0.00 0.00 64 997.2
20260507151542 6 0.0 0.0 0.00 0.00 0.00 63 997.2
20260507150041 6 0.0 0.0 0.00 0.00 0.00 69 997.2
20260507144534 5 0.0 0.0 0.00 0.00 0.00 71 997.2
20260507143028 5 0.0 0.0 0.00 0.00 0.00 73 997.3
20260507141528 5 0.0 0.0 0.00 0.00 0.00 70 997.3
20260507140020 5 0.0 0.0 0.00 0.00 0.00 70 997.3
20260507134515 5 0.0 0.0 0.00 0.00 0.00 69 997.3
20260507133016 5 0.0 0.0 0.00 0.00 0.00 71 997.2
20260507131509 5 0.0 0.0 0.00 0.00 0.00 73 997.2
20260507130002 5 0.0 0.0 0.00 0.00 0.00 76 997.0
20260507124606 5 0.0 0.0 0.00 0.00 0.00 80 997.0
20260507123054 5 0.0 0.0 0.00 0.00 0.00 87 996.9
20260507121549 3 0.0 0.0 0.00 0.00 0.00 90 996.9
20260507120046 2 0.0 0.0 0.00 0.00 0.00 93 996.5
20260507114555 1 0.0 0.0 0.00 0.00 0.00 92 996.4
20260507113039 0 0.0 0.0 0.00 0.00 0.00 91 996.3
20260507111533 0 0.0 0.0 0.00 0.00 0.00 90 996.2
20260507110037 0 0.0 0.0 0.00 0.00 0.00 89 995.9
20260507104528 0 0.0 0.0 0.00 0.00 0.00 89 995.8
20260507103023 0 0.0 0.0 0.00 0.00 0.00 89 995.8
20260507101517 1 0.0 0.0 0.00 0.00 0.00 87 995.7
20260507100015 1 0.0 0.0 0.00 0.00 0.00 86 995.7
20260507094506 1 0.0 0.0 0.00 0.00 0.00 86 995.7
20260507093004 2 0.0 0.0 0.00 0.00 0.00 85 995.8
20260507091558 2 0.0 0.0 0.00 0.00 0.00 85 995.8
20260507090054 2 0.0 0.0 0.00 0.00 0.00 84 995.8
20260507084550 2 0.0 0.0 0.00 0.00 0.00 83 995.9
20260507083045 3 0.0 0.0 0.00 0.00 0.00 83 995.9
20260507081542 3 0.0 0.0 0.00 0.00 0.00 82 995.9
20260507080038 3 0.0 0.0 0.00 0.00 0.00 81 996.0
20260507074532 3 0.0 0.0 0.00 0.00 0.00 81 996.0
20260507073028 4 0.0 0.0 0.00 0.00 0.00 81 996.1
20260507071525 4 0.0 0.0 0.00 0.00 0.00 82 996.0
20260507070028 4 0.0 0.0 0.00 0.00 0.00 81 996.2
20260507064516 5 0.0 0.0 0.00 0.00 0.00 82 996.2
20260507063011 5 0.0 0.0 0.00 0.00 0.00 81 996.4
20260507061506 5 0.0 0.0 0.00 0.00 0.00 79 996.3
20260507060001 5 0.0 0.0 0.00 0.00 0.00 76 996.5
20260507054557 6 0.0 0.0 0.00 0.00 0.00 72 996.7
20260507053107 6 0.0 0.0 0.00 0.00 0.00 68 996.6
20260507051549 6 0.0 0.0 0.00 0.00 0.00 65 996.6
20260507050047 6 0.0 0.0 0.00 0.00 0.00 65 996.6
20260507044558 6 0.0 0.0 0.00 0.00 0.00 66 996.6
20260507043042 6 0.0 0.0 0.00 0.00 0.00 66 996.6
20260507041539 6 0.0 0.0 0.00 0.00 0.00 75 996.6
20260507040040 6 0.0 0.0 0.00 0.00 0.00 74 996.5
20260507034530 6 0.0 0.0 0.00 0.00 0.00 73 996.6
20260507033030 6 0.0 0.0 0.00 0.00 0.00 70 996.6
20260507031524 7 0.0 0.0 0.00 0.00 0.00 66 996.4
20260507030015 7 0.0 0.0 0.00 0.00 0.00 62 996.5
20260507024510 7 0.0 0.0 0.00 0.00 0.00 59 996.4
20260507023006 7 0.0 0.0 0.00 0.00 0.00 59 996.4
20260507021502 7 0.0 0.0 0.00 0.00 0.00 57 996.3
20260507014604 7 0.0 0.0 0.00 0.00 0.00 54 996.2
20260507013102 7 0.0 0.0 0.00 0.00 0.00 53 996.2
20260507011557 7 0.0 0.0 0.00 0.00 0.00 52 996.2
20260507010050 7 0.0 0.0 0.00 0.00 0.00 52 996.1
20260507004546 7 0.0 0.0 0.00 0.00 0.00 59 996.0
20260507003041 7 0.0 0.0 0.00 0.00 0.00 63 995.9
20260507001537 7 0.0 0.0 0.00 0.00 0.00 61 995.8
20260507000034 7 0.0 0.0 0.00 0.00 0.00 58 995.8
20260506234528 7 0.0 0.0 0.00 0.00 0.00 57 995.8
20260506233024 8 0.0 0.0 0.00 0.00 0.00 53 995.8
20260506231520 8 0.0 0.0 0.00 0.00 0.00 53 995.9
20260506230017 8 0.0 0.0 0.00 0.00 0.00 51 995.9
20260506224511 9 0.0 0.0 0.00 0.00 0.00 50 995.8
20260506223014 9 0.0 0.0 0.00 0.00 0.00 49 995.9
20260506221502 9 0.0 0.0 0.00 0.00 0.00 51 996.0
20260506220101 9 0.0 0.0 0.00 0.00 0.00 52 995.9
20260506214555 10 0.0 0.0 0.00 0.00 0.00 52 995.9
20260506213049 10 0.0 0.0 0.00 0.00 0.00 50 995.9
20260506211544 10 0.0 0.0 0.00 0.00 0.00 51 995.9
20260506210041 10 0.0 0.0 0.00 0.00 0.00 49 996.0
20260506204540 10 0.0 0.0 0.00 0.00 0.00 49 996.1
20260506203039 10 0.0 0.0 0.00 0.00 0.00 49 996.1
20260506201531 10 0.0 0.0 0.00 0.00 0.00 49 996.1
20260506200023 10 0.0 0.0 0.00 0.00 0.00 50 996.2
20260506194520 10 0.0 0.0 0.00 0.00 0.00 51 996.2